[[{"header":{"parameterUnit":"m.s-1","parameterCategory":1,"la1":30.2991,"la2":30.254,"lo1":-89.0895,"lo2":-89.0444,"dy":0.0017,"dx":0.0017,"nx":28,"ny":28,"refTime":"2024-06-27T03:00:00:Z","depth":0,"parameterNumber":2,"parameterNumberName":"U-component_of_WINDS"},"data":[0,0,0,0,0,0,0,0,0,0,0,0,0,0,0,0,0,0,0,0,0,0,0,0,0,0,0,0,0,0,0,0,0,0,0,0,0,0,0,0,0,0,0,0,0,0,0,0,0,0,0,0,0,0,0,0,0,0,4.3371,4.3372,0,4.3519,4.3521,4.3523,4.3442,4.3438,4.3434,4.3431,4.3589,4.3597,4.3605,0,0,0,0,0,0,0,0,0,0,0,0,0,4.3021,4.3028,4.3371,4.3372,4.3374,4.3519,4.3521,4.3523,4.3443,4.3438,4.3433,4.3429,4.3586,4.3596,4.3605,0,0,0,0,0,0,0,0,0,0,0,0,0,4.3172,4.303,4.337,4.3352,4.3351,4.3519,4.3521,4.3524,4.3444,4.3438,4.3432,4.3426,4.3583,4.3595,4.3607,4.3802,0,0,4.3643,4.3648,0,0,0,0,0,0,0,0,4.3163,4.3185,4.3353,4.3353,4.3353,4.3456,4.3456,4.3617,4.3446,4.3409,4.343,4.3423,4.355,4.3564,4.3606,4.381,4.3817,4.3644,4.3652,4.3657,4.366,0,0,0,0,0,0,0,4.3153,4.3178,4.3429,4.3355,4.3356,4.3337,4.3352,4.3486,4.3512,4.3412,4.3406,4.3425,4.3549,4.3594,4.3609,4.3819,4.3644,4.3655,4.3662,4.3667,4.4187,4.4194,0,0,0,0,0,0,4.3143,4.317,4.3425,4.3434,4.3241,4.3348,4.3365,4.3429,4.351,4.3517,4.343,4.342,4.3577,4.3595,4.3614,4.3846,4.3657,4.3668,4.3675,4.4181,4.4189,4.4196,0,0,0,0,0,0,4.3136,4.3166,4.3419,4.33,4.3331,4.3361,4.3434,4.3435,4.348,4.3524,4.3529,4.3471,4.3573,4.3597,4.3755,4.385,4.3673,4.3684,4.4173,4.4183,4.4192,4.4313,0,0,0,0,0,0,4.3126,4.3164,4.3238,4.3302,4.3338,4.3557,4.344,4.3443,4.3501,4.349,4.3564,4.357,4.357,4.3737,4.3767,4.3864,4.3694,4.4164,4.4178,4.4189,4.4301,4.4326,4.4347,0,0,0,0,0,4.3114,4.3269,4.3243,4.3274,4.3431,4.3562,4.3582,4.3577,4.3509,4.3584,4.3611,4.3568,4.3835,4.3754,4.3787,4.3889,4.4158,4.4174,4.4188,4.429,4.4321,4.4347,0,0,0,0,0,0,4.3218,4.3277,4.3249,4.3429,4.3491,4.3548,4.3643,4.361,4.3695,4.3682,4.3673,4.3691,4.3854,4.3887,4.3796,4.4081,4.3986,4.4009,4.4053,4.4082,4.4105,4.4093,4.3704,0,0,0,0,0,4.3261,4.3362,4.3408,4.3563,4.3595,4.3614,4.3671,4.3661,4.3726,4.3752,4.3791,4.3857,4.3955,4.4021,4.4114,4.4305,4.4319,4.4391,4.4414,4.4433,4.4452,4.4553,4.4585,4.4245,4.4245,4.4245,0,0,4.3353,4.3398,4.3462,4.3585,4.3632,4.3736,4.3637,4.3753,4.383,4.3771,4.392,4.3951,4.4024,4.4198,4.4277,4.4231,4.4549,4.4452,4.4467,4.4476,4.4572,4.4604,4.4632,4.4255,4.4253,4.4252,0,0,4.3573,4.3618,4.3749,4.3797,4.3868,4.3879,4.3911,4.3973,4.399,4.414,4.4096,4.4189,4.436,4.4413,4.4462,4.4698,4.4661,4.4729,4.4851,4.4949,4.4976,4.5,4.5082,4.5112,4.4748,4.4749,4.4749,0,4.3679,4.3833,4.3822,4.394,4.3994,4.3942,4.4075,4.4123,4.4222,4.4261,4.4208,4.4418,4.4464,4.4648,4.4705,4.4748,4.4783,4.4721,4.4973,4.4997,4.5019,4.5097,4.5128,4.4756,4.4755,4.4754,4.4754,0,4.3958,4.4066,4.4164,4.4257,4.4323,4.4448,4.4456,4.4524,4.4508,4.4525,4.4677,4.4729,4.483,4.4874,4.4861,4.5056,4.5025,4.4973,4.4878,4.5059,4.5132,4.5162,4.4767,4.4764,4.4762,4.476,0,0,4.425,4.4332,4.4368,4.4408,4.4482,4.4565,4.4688,4.4784,4.4841,4.4911,4.5013,4.5157,4.5108,4.5164,4.5156,4.5242,4.5423,4.5179,4.5181,4.5221,4.5639,4.5676,4.5711,4.5399,4.5404,4.5409,4.5632,0,4.4473,4.4684,4.4676,4.4874,4.4972,4.4923,4.5029,4.5085,4.5104,4.5191,4.5211,4.5312,4.5241,4.5274,4.5357,4.5383,4.5506,4.5367,4.5493,4.5498,4.5475,4.575,4.5791,4.5998,4.566,4.5665,4.5669,0,4.4762,4.4837,4.5044,4.5099,4.514,4.5236,4.5321,4.5405,4.5468,4.5475,4.5535,4.5513,4.5637,4.5538,4.5709,4.5614,4.5665,4.5686,4.5693,4.5704,4.5594,4.5767,4.6065,4.6095,4.5715,4.5711,4.5708,0,4.4951,4.5105,4.5247,4.5284,4.5352,4.542,4.5452,4.5508,4.5566,4.5642,4.5679,4.5769,4.5819,4.589,4.5892,4.582,4.6063,4.5966,4.6072,4.6072,4.6125,4.6122,4.6434,4.6161,4.616,4.616,4.6159,0,4.5201,4.5329,4.5332,4.542,4.5561,4.5551,4.5691,4.5717,4.5767,4.5859,4.5823,4.591,4.5908,4.5998,4.6001,4.614,4.6163,4.6172,4.6171,4.6175,4.6173,4.6207,4.6193,4.6168,4.6166,4.6165,4.6163,0,4.5436,4.5444,4.5595,4.5646,4.5662,4.5764,4.5808,4.5891,4.5905,4.6021,4.6048,4.6071,4.6173,4.6182,4.6303,4.6304,4.6472,4.6456,4.645,4.6447,4.6552,4.6541,4.6896,4.6942,4.664,4.6643,4.6645,0,4.5594,4.569,4.575,4.5808,4.5843,4.5937,4.5994,4.5987,4.6048,4.6125,4.6199,4.6297,4.6375,4.6541,4.6569,4.666,4.6645,4.6763,4.6659,4.6658,4.6645,4.6638,4.6647,4.6784,4.6787,4.679,4.6792,0,4.5873,4.5871,4.5953,4.6037,4.6105,4.6172,4.6234,4.6284,4.6284,4.6355,4.6457,4.6517,4.6637,4.6735,4.6824,4.6858,4.6825,4.6824,4.6853,4.6857,4.6849,4.6853,4.6503,4.6816,4.6814,4.6812,4.6811,4.681,4.6073,4.6155,4.6209,4.6302,4.6346,4.6404,4.6484,4.6506,4.659,4.6686,4.6677,4.679,4.6848,4.6963,4.7003,4.7092,4.7053,4.7096,4.7106,4.7117,4.7126,4.6835,4.7109,4.7108,4.7108,4.7107,4.7106,0,4.6348,4.6379,4.6464,4.655,4.6623,4.6583,4.6648,4.6712,4.6811,4.6867,4.6943,4.706,4.7154,4.7188,4.7279,4.7343,4.7331,4.7368,4.7362,4.737,4.7158,4.7122,4.7376,4.7376,4.7376,4.7376,4.7376,4.7376,4.65,4.6635,4.6639,4.6797,4.6827,4.6936,4.6976,4.7029,4.7073,4.7204,4.728,4.7301,4.7348,4.7442,4.7526,4.7533,4.7568,4.7611,4.7612,4.7413,4.7386,4.736,4.7326,4.7619,4.7619,4.7817,4.7819,4.782]},{"header":{"parameterUnit":"m.s-1","parameterCategory":1,"la1":30.2991,"la2":30.254,"lo1":-89.0895,"lo2":-89.0444,"dy":0.0017,"dx":0.0017,"nx":28,"ny":28,"refTime":"2024-06-27T03:00:00:Z","depth":0,"parameterNumber":3,"parameterNumberName":"V-component_of_WINDS"},"data":[0,0,0,0,0,0,0,0,0,0,0,0,0,0,0,0,0,0,0,0,0,0,0,0,0,0,0,0,0,0,0,0,0,0,0,0,0,0,0,0,0,0,0,0,0,0,0,0,0,0,0,0,0,0,0,0,0,0,3.4481,3.4484,0,3.471,3.4712,3.4715,3.4741,3.4739,3.4737,3.4734,3.4973,3.4981,3.499,0,0,0,0,0,0,0,0,0,0,0,0,0,3.4071,3.4079,3.4481,3.4484,3.4487,3.4709,3.4713,3.4716,3.4742,3.4739,3.4736,3.4733,3.497,3.498,3.499,0,0,0,0,0,0,0,0,0,0,0,0,0,3.427,3.4081,3.4481,3.4527,3.4533,3.4709,3.4713,3.4717,3.4742,3.4739,3.4735,3.4732,3.4967,3.4979,3.4992,3.5139,0,0,3.5031,3.5036,0,0,0,0,0,0,0,0,3.4258,3.4285,3.4517,3.4524,3.4531,3.4693,3.4655,3.4858,3.4743,3.4663,3.4734,3.473,3.4883,3.4902,3.4953,3.515,3.516,3.5032,3.504,3.5045,3.5049,0,0,0,0,0,0,0,3.4245,3.4275,3.4572,3.452,3.4529,3.4537,3.4561,3.4694,3.479,3.467,3.4672,3.4698,3.4886,3.4941,3.4959,3.5164,3.5031,3.5043,3.5051,3.5056,3.5493,3.5497,0,0,0,0,0,0,3.4222,3.4263,3.4565,3.4579,3.4383,3.4547,3.4574,3.4645,3.4788,3.4807,3.4701,3.4699,3.4921,3.4944,3.4967,3.5149,3.5045,3.5057,3.5064,3.5489,3.5494,3.5498,0,0,0,0,0,0,3.4213,3.4248,3.4555,3.4422,3.4461,3.4558,3.4637,3.4651,3.4705,3.4812,3.483,3.4739,3.4919,3.4949,3.5096,3.5157,3.5063,3.5074,3.5484,3.5491,3.5496,3.5513,0,0,0,0,0,0,3.4201,3.4245,3.4301,3.4423,3.4468,3.4679,3.4641,3.4658,3.4727,3.4726,3.4852,3.487,3.4918,3.5077,3.5108,3.5173,3.5084,3.5479,3.5487,3.5494,3.5507,3.5519,3.5528,0,0,0,0,0,3.4186,3.4298,3.4304,3.434,3.454,3.4682,3.4709,3.4761,3.4732,3.4789,3.4858,3.4866,3.5145,3.5091,3.5127,3.5197,3.5476,3.5485,3.5494,3.5503,3.5516,3.5528,0,0,0,0,0,0,3.4183,3.4315,3.4323,3.4477,3.4568,3.4686,3.4761,3.4774,3.4877,3.4872,3.4934,3.4963,3.5106,3.5167,3.5104,3.5347,3.5308,3.5324,3.5302,3.5316,3.5327,3.5309,3.5095,0,0,0,0,0,3.42,3.4303,3.4413,3.4538,3.4583,3.4664,3.4728,3.476,3.4858,3.4897,3.4976,3.5072,3.5181,3.5252,3.5359,3.5516,3.5544,3.5582,3.5592,3.56,3.5614,3.5701,3.5719,3.5528,3.5528,3.5528,0,0,3.4237,3.4321,3.4383,3.454,3.4614,3.472,3.4697,3.481,3.489,3.4915,3.5057,3.5119,3.523,3.5382,3.5453,3.5436,3.5673,3.5612,3.5617,3.5627,3.5712,3.573,3.5746,3.5534,3.5533,3.5532,0,0,3.4357,3.4432,3.4544,3.4618,3.473,3.4783,3.481,3.4927,3.4968,3.5111,3.5132,3.5228,3.5416,3.5493,3.5558,3.5706,3.5718,3.574,3.5795,3.588,3.5895,3.5908,3.5961,3.598,3.5753,3.5753,3.5753,0,3.4389,3.4549,3.46,3.4713,3.4781,3.4807,3.4921,3.4992,3.5134,3.5181,3.516,3.5395,3.5472,3.5642,3.5678,3.5729,3.5762,3.5726,3.5888,3.5902,3.5916,3.5967,3.5987,3.5755,3.5755,3.5754,3.5754,0,3.4582,3.4692,3.477,3.4904,3.4981,3.5094,3.5164,3.5237,3.5262,3.5317,3.5463,3.5555,3.5681,3.5724,3.575,3.5898,3.5884,3.5875,3.5837,3.5935,3.5984,3.6004,3.5758,3.5757,3.5756,3.5756,0,0,3.4708,3.4868,3.4896,3.4957,3.5082,3.5169,3.5283,3.5404,3.5465,3.5562,3.566,3.5817,3.5809,3.5881,3.5917,3.5991,3.6103,3.5973,3.5976,3.5994,3.6271,3.6277,3.6299,3.611,3.6114,3.6118,3.6262,0,3.4843,3.5046,3.5095,3.5269,3.5372,3.5397,3.5497,3.5585,3.5639,3.5735,3.5796,3.5906,3.5887,3.5931,3.6005,3.6073,3.6159,3.6064,3.6203,3.6207,3.6174,3.6325,3.6332,3.6463,3.6281,3.6285,3.6287,0,3.5028,3.5127,3.531,3.5421,3.5466,3.5554,3.5669,3.576,3.586,3.5895,3.5975,3.6003,3.6124,3.608,3.6247,3.6181,3.6241,3.6283,3.629,3.6305,3.6253,3.6344,3.6507,3.6526,3.6318,3.6315,3.6313,0,3.5101,3.528,3.5413,3.5464,3.5597,3.5658,3.5717,3.5814,3.5883,3.5984,3.6029,3.6143,3.6206,3.6293,3.6352,3.6314,3.6515,3.6475,3.6548,3.6546,3.6589,3.6586,3.6764,3.6628,3.6627,3.6627,3.6627,0,3.5247,3.5358,3.5447,3.5529,3.5654,3.571,3.5833,3.5893,3.5979,3.6073,3.6102,3.6191,3.6262,3.6361,3.6407,3.6539,3.6567,3.6599,3.661,3.6597,3.6592,3.6637,3.6629,3.6632,3.6631,3.663,3.6629,0,3.535,3.5414,3.556,3.5673,3.5704,3.5791,3.5889,3.597,3.6024,3.6143,3.6175,3.6261,3.6378,3.6445,3.6593,3.6624,3.6771,3.6778,3.6736,3.6741,3.681,3.6802,3.7023,3.7055,3.6897,3.6898,3.69,0,3.5438,3.5524,3.5646,3.571,3.5769,3.5873,3.5943,3.6001,3.6074,3.6194,3.626,3.6379,3.6477,3.6663,3.674,3.6853,3.6863,3.6932,3.688,3.6863,3.6864,3.6858,3.6867,3.6941,3.6943,3.6944,3.6945,0,3.5589,3.5616,3.5715,3.5826,3.5908,3.5998,3.6088,3.6139,3.6213,3.6293,3.6412,3.6487,3.6638,3.6755,3.6874,3.6936,3.6953,3.696,3.6983,3.697,3.6942,3.6958,3.6761,3.6955,3.6954,3.6953,3.6953,3.6952,3.5688,3.5765,3.5862,3.5971,3.6044,3.6127,3.6208,3.6272,3.6372,3.6497,3.6526,3.6652,3.675,3.6912,3.6977,3.7076,3.7064,3.7097,3.7106,3.7113,3.7115,3.6926,3.7098,3.7098,3.7098,3.7098,3.7098,0,3.584,3.5903,3.6003,3.6126,3.6212,3.6219,3.6318,3.639,3.65,3.6589,3.6684,3.6821,3.6935,3.702,3.7137,3.72,3.7211,3.7229,3.7225,3.7239,3.7119,3.7088,3.7218,3.7218,3.7218,3.7218,3.7218,3.7218,3.5929,3.6059,3.6098,3.6265,3.6328,3.645,3.6506,3.6583,3.6654,3.6805,3.6899,3.6953,3.7041,3.7164,3.7269,3.7292,3.7333,3.735,3.7373,3.726,3.7247,3.7235,3.7206,3.7359,3.7359,3.7485,3.7486,3.7487]}]]